Hourly Data Report for October 20, 2014

All times are specified in Local Standard Time (LST). Add 1 hour to adjust for Daylight Saving Time where and when it is observed.

BAKER LAKE A
NUNAVUT

64°17'56.000" N
96°04'40.000" W
18.60 m
2300503
71926
YBK

Download Data

Hourly Data (October 2014)
Hourly Data Report for October 20, 2014
Temp Definition
°C
Dew Point Temp Definition
°C
Rel Hum Definition
%
Wind Dir Definition
10's deg

Wind Spd Definition
km/h
Visibility Definition
km
Stn Press Definition
kPa
Hmdx Definition


Wind Chill Definition


Weather Definition


TIME
00:00 Legend Double Dagger -7.0 -8.8 87 29 25 24.1 101.28   -15 Mainly Clear
01:00 Legend Double Dagger -5.7 -7.2 89 29 14 24.1 101.36   -11 LegendNANA
02:00 Legend Double Dagger -5.8 -7.6 87 31 22 24.1 101.43   -13 LegendNANA
03:00 Legend Double Dagger -6.3 -7.3 93 34 15 24.1 101.46   -12 Cloudy
04:00 Legend Double Dagger -9.7 -10.6 93 32 7 24.1 101.49   -14 LegendNANA
05:00 Legend Double Dagger -11.8 -12.9 92 31 12 24.1 101.53   -18 LegendNANA
06:00 Legend Double Dagger -10.8 -11.9 92 30 16 24.1 101.55   -18 Mainly Clear
07:00 Legend Double Dagger -12.0 -13.3 90 31 9 32.2 101.57   -17 LegendNANA
08:00 Legend Double Dagger -11.0 -12.1 92 2 4 32.2 101.61   -13 LegendNANA
09:00 Legend Double Dagger -11.3 -12.6 90 36 6 32.2 101.60   -15 Mainly Clear
10:00 Legend Double Dagger -9.9 -11.4 89 34 7 32.2 101.62   -14 LegendNANA
11:00 Legend Double Dagger -10.5 -11.8 90 34 10 32.2 101.59   -16 LegendNANA
12:00 Legend Double Dagger -8.2 -9.7 89 36 2 32.2 101.59   -9 Mostly Cloudy
13:00 Legend Double Dagger -7.3 -8.7 90 14 7 32.2 101.53   -11 LegendNANA
14:00 Legend Double Dagger -6.8 -8.5 88 13 10 32.2 101.47   -11 LegendNANA
15:00 Legend Double Dagger -6.3 -8.0 88 14 13 32.2 101.47   -12 Mostly Cloudy
16:00 Legend Double Dagger -6.0 -7.5 89 14 19 32.2 101.40   -13 LegendNANA
17:00 Legend Double Dagger -5.9 -7.1 91 14 23 32.2 101.34   -13 LegendNANA
18:00 Legend Double Dagger -5.7 -7.2 89 14 25 24.1 101.21   -13 Mostly Cloudy
19:00 Legend Double Dagger -5.7 -6.9 91 14 25 16.1 101.17   -13 Snow
20:00 Legend Double Dagger -5.8 -7.0 91 13 26 8.1 101.02   -14 Snow,Blowing Snow
21:00 Legend Double Dagger -5.3 -6.8 89 13 28 16.1 100.86   -13 Snow,Blowing Snow
22:00 Legend Double Dagger -4.6 -5.6 93 14 34 4.8 100.70   -13 Snow,Blowing Snow
23:00 Legend Double Dagger -4.0 -5.4 90 14 35 16.1 100.55   -12 Snow,Blowing Snow

Notes on Data Quality.

Legend

  • E = Estimated
  • M = Missing
  • NA = Not Available
  • ‡ = Partner data that is not subject to review by the National Climate Archives
Date modified: